NORTHERN NASSAU  -  Areal Flood Advisory Areal Flood Advisory     Special Weather Statement Special Weather Statement        NORTHERN QUEENS  -  Areal Flood Advisory Areal Flood Advisory        SOUTHERN NASSAU  -  Areal Flood Advisory Areal Flood Advisory     Special Weather Statement Special Weather Statement        SOUTHERN QUEENS  -  Areal Flood Advisory Areal Flood Advisory        NORTHEAST SUFFOLK  -  Special Weather Statement Special Weather Statement        NORTHWEST SUFFOLK  -  Special Weather Statement Special Weather Statement        SOUTHEAST SUFFOLK  -  Special Weather Statement Special Weather Statement        SOUTHWEST SUFFOLK  -  Special Weather Statement Special Weather Statement      

Active alerts

Northern Queens
  Details for Northern Queens Areal Flood Advisory
Southern Queens
  Details for Southern Queens Areal Flood Advisory
Northern Nassau
  Details for Northern Nassau Areal Flood Advisory  +1 additional alert
Southern Nassau
  Details for Southern Nassau Areal Flood Advisory  +1 additional alert
Northwest Suffolk
  Details for Northwest Suffolk Special Weather Statement
Southwest Suffolk
  Details for Southwest Suffolk Special Weather Statement
Northeast Suffolk
  Details for Northeast Suffolk Special Weather Statement
Southeast Suffolk
  Details for Southeast Suffolk Special Weather Statement


WXM80 ListenWXM80 Stop

You find our weather info also at:

UK Metoffice

WeatherCloud

Weather Underground

Northeastern Weather Network

AWEKAS

Citizen Weather Observer Program (CWOP)

HAMweather, WeatherForYou, PWS Weather


Weather Underground History page Text

Daily Summary for March 7, 2017 Units:  English    Metric   Both
« Previous Day
Next Day »
Daily Weekly Monthly Yearly Custom
  High: Low: Average:
Temperature: TemperatureF °F 39.5 °F 47.1 °F
Dew Point: DewpointF °F 32.9 °F 43.2 °F
Humidity: Humidity % 77 % 86 %
Wind Speed: WindSpeedMPH mph 0.0 mph 3.2 mph
Wind Gust: WindSpeedGustMPH mph - -
Wind:- - South
Pressure: PressureIn in 29.98 in -
Precipitation: 0.00 in    
Historical Graphs
 
 
Tabular Data for March 7, 2017
Time Temperature Dew Point Pressure Wind Wind Speed Wind Gust Humidity Rainfall Rate (Hourly)
TemperatureF °F DewpointF °F PressureIn in Calm     Humidity % HourlyPrecipIn in
00:02 39.5 °F 32.9 °F 30.40 in South 3.0 mph 4.6 mph 77 % 0.00 in
00:07 39.6 °F 33.3 °F 30.40 in Calm   1.0 mph 78 % 0.00 in
00:12 39.7 °F 33.4 °F 30.40 in South 1.1 mph 3.5 mph 78 % 0.00 in
00:17 39.7 °F 33.4 °F 30.39 in Calm   1.2 mph 78 % 0.00 in
00:22 39.8 °F 33.5 °F 30.40 in SSE 0.8 mph 3.5 mph 78 % 0.00 in
00:28 39.9 °F 33.6 °F 30.40 in SSW 0.1 mph 1.2 mph 78 % 0.00 in
00:33 39.9 °F 33.6 °F 30.40 in South 0.3 mph 3.5 mph 78 % 0.00 in
00:38 40.0 °F 34.0 °F 30.40 in SSW 0.7 mph 2.3 mph 79 % 0.00 in
00:43 40.0 °F 34.0 °F 30.40 in South 1.0 mph 3.5 mph 79 % 0.00 in
00:48 40.1 °F 34.1 °F 30.40 in South 1.1 mph 1.2 mph 79 % 0.00 in
00:53 40.1 °F 34.1 °F 30.40 in Calm   3.0 mph 79 % 0.00 in
00:58 40.2 °F 34.2 °F 30.39 in South 0.5 mph 1.2 mph 79 % 0.00 in
01:03 40.2 °F 34.2 °F 30.39 in South 1.0 mph 3.0 mph 79 % 0.00 in
01:08 40.2 °F 34.2 °F 30.39 in SSW 1.0 mph 2.0 mph 79 % 0.00 in
01:13 40.3 °F 34.6 °F 30.39 in SSE 0.7 mph 2.3 mph 80 % 0.00 in
01:18 40.4 °F 34.7 °F 30.39 in Calm     80 % 0.00 in
01:23 40.5 °F 34.8 °F 30.39 in South 2.0 mph 5.0 mph 80 % 0.00 in
01:28 40.5 °F 34.8 °F 30.39 in Calm   3.5 mph 80 % 0.00 in
01:33 40.6 °F 34.9 °F 30.39 in Calm   2.0 mph 80 % 0.00 in
01:38 40.6 °F 34.9 °F 30.39 in South 1.0 mph 4.0 mph 80 % 0.00 in
01:43 40.7 °F 35.0 °F 30.38 in South 0.9 mph 2.3 mph 80 % 0.00 in
01:48 40.8 °F 35.1 °F 30.38 in South 3.0 mph 6.0 mph 80 % 0.00 in
01:53 40.9 °F 35.2 °F 30.38 in Calm   4.0 mph 80 % 0.00 in
01:54 40.9 °F 35.2 °F 30.38 in SSE 1.8 mph 3.5 mph 80 % 0.00 in
01:59 41.0 °F 35.3 °F 30.38 in SSW 1.4 mph 3.5 mph 80 % 0.00 in
02:05 41.1 °F 35.4 °F 30.38 in SSE 0.9 mph 3.5 mph 80 % 0.00 in
02:10 41.1 °F 35.1 °F 30.37 in SSW 2.9 mph 5.0 mph 79 % 0.00 in
02:15 41.2 °F 35.2 °F 30.37 in South 1.6 mph 3.5 mph 79 % 0.00 in
02:20 41.3 °F 35.3 °F 30.37 in South 1.2 mph 4.6 mph 79 % 0.00 in
02:25 41.3 °F 35.3 °F 30.37 in Calm   1.0 mph 79 % 0.00 in
02:30 41.3 °F 35.6 °F 30.37 in South 3.5 mph 4.6 mph 80 % 0.00 in
02:35 41.3 °F 35.6 °F 30.37 in South 1.5 mph 4.0 mph 80 % 0.00 in
02:40 41.3 °F 35.6 °F 30.36 in South 0.6 mph 2.3 mph 80 % 0.00 in
02:45 41.4 °F 36.0 °F 30.36 in SSE 1.0 mph 3.5 mph 81 % 0.00 in
02:50 41.4 °F 36.0 °F 30.36 in SSE 2.1 mph 3.5 mph 81 % 0.00 in
02:55 41.4 °F 36.0 °F 30.36 in South 1.1 mph 3.5 mph 81 % 0.00 in
03:00 41.4 °F 36.0 °F 30.36 in SSE 1.6 mph 3.5 mph 81 % 0.00 in
03:05 41.5 °F 36.1 °F 30.35 in SSW 1.4 mph 3.0 mph 81 % 0.00 in
03:11 41.5 °F 36.4 °F 30.35 in South 2.2 mph 4.6 mph 82 % 0.00 in
03:14 41.5 °F 36.4 °F 30.35 in SSE 2.2 mph 4.6 mph 82 % 0.00 in
03:20 41.6 °F 36.5 °F 30.35 in SSE 0.5 mph 3.5 mph 82 % 0.00 in
03:25 41.6 °F 36.5 °F 30.35 in SSE 1.3 mph 4.0 mph 82 % 0.00 in
03:30 41.7 °F 36.6 °F 30.35 in SE 0.5 mph 2.3 mph 82 % 0.00 in
03:35 41.8 °F 36.7 °F 30.35 in SSW 2.3 mph 5.0 mph 82 % 0.00 in
03:40 41.8 °F 36.7 °F 30.35 in SSW 2.7 mph 3.5 mph 82 % 0.00 in
03:45 41.9 °F 36.8 °F 30.35 in SSE 0.1 mph 1.2 mph 82 % 0.00 in
03:50 41.9 °F 36.8 °F 30.35 in South 1.0 mph 3.5 mph 82 % 0.00 in
03:55 42.0 °F 36.9 °F 30.35 in SE 0.2 mph 1.2 mph 82 % 0.00 in
04:00 42.0 °F 36.9 °F 30.35 in Calm   3.5 mph 82 % 0.00 in
04:05 42.1 °F 37.0 °F 30.35 in SSE 3.7 mph 7.0 mph 82 % 0.00 in
04:10 42.2 °F 37.4 °F 30.35 in SSW 0.4 mph 3.0 mph 83 % 0.00 in
04:15 42.2 °F 37.4 °F 30.35 in SSE 1.4 mph 2.3 mph 83 % 0.00 in
04:20 42.3 °F 37.5 °F 30.35 in SSE 3.2 mph 4.6 mph 83 % 0.00 in
04:26 42.4 °F 37.6 °F 30.35 in SSE 2.4 mph 4.6 mph 83 % 0.00 in
04:31 42.4 °F 37.6 °F 30.35 in SSE 1.1 mph 2.3 mph 83 % 0.00 in
04:36 42.5 °F 37.7 °F 30.35 in SSE 0.9 mph 3.5 mph 83 % 0.00 in
04:41 42.5 °F 37.7 °F 30.35 in SSE 4.0 mph 6.9 mph 83 % 0.00 in
04:46 42.5 °F 37.7 °F 30.35 in South 3.0 mph 4.6 mph 83 % 0.00 in
04:51 42.5 °F 37.7 °F 30.35 in SE 2.4 mph 4.0 mph 83 % 0.00 in
04:56 42.5 °F 37.7 °F 30.35 in SE 2.4 mph 4.6 mph 83 % 0.00 in
05:01 42.5 °F 37.7 °F 30.35 in SSE 2.6 mph 4.6 mph 83 % 0.00 in
05:06 42.6 °F 37.8 °F 30.35 in SE 1.4 mph 3.5 mph 83 % 0.00 in
05:11 42.6 °F 37.8 °F 30.35 in SE 1.2 mph 3.5 mph 83 % 0.00 in
05:16 42.6 °F 37.8 °F 30.35 in SSE 1.0 mph 3.5 mph 83 % 0.00 in
05:21 42.7 °F 37.9 °F 30.34 in SSE 1.2 mph 3.5 mph 83 % 0.00 in
05:27 42.7 °F 37.9 °F 30.34 in Calm     83 % 0.00 in
05:32 42.7 °F 37.9 °F 30.34 in SSE 1.4 mph 5.8 mph 83 % 0.00 in
05:37 42.8 °F 38.0 °F 30.34 in SE 1.4 mph 3.5 mph 83 % 0.00 in
05:42 42.8 °F 38.0 °F 30.34 in SSE 2.4 mph 3.5 mph 83 % 0.00 in
05:47 42.9 °F 38.4 °F 30.35 in SSE 1.3 mph 3.5 mph 84 % 0.00 in
05:52 42.9 °F 38.4 °F 30.35 in SSE 2.8 mph 4.6 mph 84 % 0.00 in
05:57 43.0 °F 38.5 °F 30.35 in SSW 1.1 mph 3.5 mph 84 % 0.00 in
06:02 43.0 °F 38.5 °F 30.35 in SSE 1.6 mph 3.5 mph 84 % 0.00 in
06:07 43.1 °F 38.6 °F 30.35 in SE 2.0 mph 3.5 mph 84 % 0.00 in
06:12 43.2 °F 39.0 °F 30.34 in SE 0.6 mph 3.5 mph 85 % 0.00 in
06:17 43.3 °F 39.1 °F 30.34 in SSE 1.2 mph 3.5 mph 85 % 0.00 in
06:22 43.3 °F 39.1 °F 30.34 in SSE 0.5 mph 3.5 mph 85 % 0.00 in
06:28 43.4 °F 39.2 °F 30.34 in South 3.4 mph 4.0 mph 85 % 0.00 in
06:33 43.5 °F 39.6 °F 30.34 in SE 3.5 mph 6.9 mph 86 % 0.00 in
06:38 43.6 °F 39.7 °F 30.34 in SSE 1.6 mph 3.5 mph 86 % 0.00 in
06:43 43.6 °F 39.7 °F 30.34 in SE 0.2 mph 1.2 mph 86 % 0.00 in
06:48 43.6 °F 39.7 °F 30.34 in Calm   3.0 mph 86 % 0.00 in
06:53 43.6 °F 39.7 °F 30.35 in Calm   1.0 mph 86 % 0.00 in
06:58 43.7 °F 39.8 °F 30.34 in SE 2.3 mph 3.5 mph 86 % 0.00 in
07:03 43.8 °F 40.2 °F 30.34 in SE 3.0 mph 7.0 mph 87 % 0.00 in
07:08 43.9 °F 40.3 °F 30.34 in SE 1.0 mph 6.0 mph 87 % 0.00 in
07:13 44.0 °F 40.4 °F 30.34 in SE 2.0 mph 7.0 mph 87 % 0.00 in
07:18 44.1 °F 40.5 °F 30.34 in SE 3.0 mph 8.0 mph 87 % 0.00 in
07:21 44.2 °F 40.6 °F 30.33 in SSE 3.8 mph 9.2 mph 87 % 0.00 in
07:26 44.4 °F 40.8 °F 30.33 in SSE 5.5 mph 10.0 mph 87 % 0.00 in
07:31 44.6 °F 41.0 °F 30.33 in South 3.1 mph 8.1 mph 87 % 0.00 in
07:36 44.7 °F 41.1 °F 30.33 in South 4.9 mph 8.1 mph 87 % 0.00 in
07:41 44.9 °F 41.3 °F 30.33 in SSE 4.0 mph 9.2 mph 87 % 0.00 in
07:46 45.0 °F 41.4 °F 30.33 in South 3.6 mph 8.1 mph 87 % 0.00 in
07:51 45.1 °F 41.5 °F 30.33 in South 2.6 mph 4.0 mph 87 % 0.00 in
07:56 45.2 °F 41.6 °F 30.33 in SSE 5.5 mph 9.2 mph 87 % 0.00 in
08:01 45.3 °F 41.7 °F 30.33 in SSE 1.5 mph 8.1 mph 87 % 0.00 in
08:06 45.4 °F 42.1 °F 30.32 in South 4.3 mph 8.1 mph 88 % 0.00 in
08:11 45.5 °F 42.2 °F 30.33 in SSW 2.2 mph 5.0 mph 88 % 0.00 in
08:17 45.7 °F 42.3 °F 30.32 in SE 5.3 mph 12.7 mph 88 % 0.00 in
08:22 45.9 °F 42.2 °F 30.32 in SSE 8.7 mph 14.0 mph 87 % 0.00 in
08:27 46.1 °F 42.4 °F 30.32 in South 6.5 mph 11.5 mph 87 % 0.00 in
08:32 46.3 °F 42.6 °F 30.31 in South 4.3 mph 6.9 mph 87 % 0.00 in
08:37 46.5 °F 42.8 °F 30.32 in SE 7.9 mph 8.1 mph 87 % 0.00 in
08:42 46.7 °F 42.7 °F 30.32 in South 5.5 mph 9.2 mph 86 % 0.00 in
08:47 46.9 °F 42.9 °F 30.31 in SSE 6.1 mph 11.5 mph 86 % 0.00 in
08:52 47.1 °F 43.1 °F 30.31 in SSE 8.4 mph 19.6 mph 86 % 0.00 in
08:57 47.3 °F 43.0 °F 30.31 in SSE 6.4 mph 11.5 mph 85 % 0.00 in
09:02 47.6 °F 43.3 °F 30.31 in South 5.9 mph 11.0 mph 85 % 0.00 in
09:07 47.9 °F 43.3 °F 30.31 in SSE 7.1 mph 13.8 mph 84 % 0.00 in
09:13 48.1 °F 43.5 °F 30.31 in SSW 7.5 mph 12.7 mph 84 % 0.00 in
09:18 48.3 °F 43.4 °F 30.30 in SSW 5.6 mph 11.5 mph 83 % 0.00 in
09:23 48.4 °F 43.5 °F 30.30 in South 5.4 mph 10.4 mph 83 % 0.00 in
09:28 48.5 °F 43.6 °F 30.30 in SSW 6.9 mph 13.8 mph 83 % 0.00 in
09:33 48.6 °F 43.7 °F 30.30 in South 3.0 mph 12.0 mph 83 % 0.00 in
09:38 48.7 °F 43.8 °F 30.30 in South 5.0 mph 16.0 mph 83 % 0.00 in
09:43 48.8 °F 43.9 °F 30.30 in South 3.0 mph 16.0 mph 83 % 0.00 in
09:48 48.9 °F 44.0 °F 30.29 in South 6.0 mph 12.0 mph 83 % 0.00 in
09:53 49.0 °F 44.1 °F 30.29 in South 5.0 mph 12.0 mph 83 % 0.00 in
09:58 49.1 °F 44.2 °F 30.29 in SE 2.6 mph 10.0 mph 83 % 0.00 in
10:03 49.1 °F 44.5 °F 30.29 in South 6.0 mph 14.0 mph 84 % 0.00 in
10:08 49.1 °F 44.5 °F 30.28 in South 5.0 mph 10.0 mph 84 % 0.00 in
10:13 49.0 °F 44.7 °F 30.28 in South 5.0 mph 9.0 mph 85 % 0.00 in
10:18 48.9 °F 44.6 °F 30.28 in South 5.4 mph 10.0 mph 85 % 0.00 in
10:23 48.8 °F 44.8 °F 30.27 in South 6.0 mph 13.0 mph 86 % 0.00 in
10:28 48.7 °F 44.7 °F 30.27 in South 3.0 mph 9.0 mph 86 % 0.00 in
10:33 48.7 °F 45.0 °F 30.27 in South 3.6 mph 6.9 mph 87 % 0.00 in
10:38 48.7 °F 45.3 °F 30.27 in SSE 8.0 mph 15.0 mph 88 % 0.00 in
10:43 48.7 °F 45.3 °F 30.26 in SE 6.5 mph 9.2 mph 88 % 0.00 in
10:48 48.7 °F 45.3 °F 30.27 in South 6.0 mph 12.0 mph 88 % 0.00 in
10:53 48.5 °F 45.4 °F 30.27 in South 6.0 mph 16.0 mph 89 % 0.00 in
10:58 48.5 °F 45.4 °F 30.26 in South 6.1 mph 10.4 mph 89 % 0.00 in
11:03 48.3 °F 45.5 °F 30.26 in South 3.9 mph 11.5 mph 90 % 0.00 in
11:08 48.2 °F 45.4 °F 30.26 in SSE 4.2 mph 7.0 mph 90 % 0.00 in
11:13 48.0 °F 45.5 °F 30.25 in South 4.3 mph 6.0 mph 91 % 0.00 in
11:18 48.0 °F 45.5 °F 30.26 in South 3.7 mph 9.2 mph 91 % 0.00 in
11:23 48.0 °F 45.8 °F 30.25 in South 4.0 mph 10.4 mph 92 % 0.01 in
11:28 48.2 °F 46.3 °F 30.25 in SSE 3.9 mph 5.8 mph 93 % 0.01 in
11:34 48.3 °F 46.4 °F 30.25 in SSW 3.4 mph 7.0 mph 93 % 0.01 in
11:39 48.4 °F 46.5 °F 30.25 in South 2.4 mph 6.0 mph 93 % 0.01 in
11:44 48.5 °F 46.6 °F 30.25 in SSW 3.5 mph 7.0 mph 93 % 0.01 in
11:49 48.6 °F 46.7 °F 30.25 in South 4.6 mph 6.0 mph 93 % 0.01 in
11:54 48.7 °F 46.8 °F 30.24 in SSE 3.8 mph 9.2 mph 93 % 0.01 in
11:59 48.7 °F 46.8 °F 30.24 in SSW 4.5 mph 6.9 mph 93 % 0.01 in
12:04 48.7 °F 46.8 °F 30.24 in SSW 3.2 mph 5.8 mph 93 % 0.01 in
12:09 48.8 °F 46.9 °F 30.23 in South 1.8 mph 6.9 mph 93 % 0.01 in
12:14 48.9 °F 47.2 °F 30.23 in South 1.2 mph 3.0 mph 94 % 0.01 in
12:20 49.0 °F 47.3 °F 30.22 in SSE 2.7 mph 5.8 mph 94 % 0.01 in
12:25 49.0 °F 47.1 °F 30.22 in South 3.9 mph 8.1 mph 93 % 0.00 in
12:30 49.0 °F 47.1 °F 30.21 in SSE 5.0 mph 7.0 mph 93 % 0.00 in
12:35 49.1 °F 47.2 °F 30.21 in SSE 2.8 mph 3.5 mph 93 % 0.00 in
12:40 49.2 °F 47.3 °F 30.21 in SSE 2.4 mph 4.0 mph 93 % 0.00 in
12:45 49.3 °F 47.6 °F 30.21 in SSW 3.5 mph 5.8 mph 94 % 0.00 in
12:50 49.4 °F 47.5 °F 30.21 in SW 1.8 mph 5.8 mph 93 % 0.00 in
12:55 49.4 °F 47.5 °F 30.20 in South 2.2 mph 3.5 mph 93 % 0.00 in
13:00 49.3 °F 47.4 °F 30.20 in South 1.6 mph 3.5 mph 93 % 0.00 in
13:05 49.4 °F 47.5 °F 30.20 in South 1.4 mph 3.5 mph 93 % 0.00 in
13:10 49.4 °F 47.7 °F 30.20 in South 2.8 mph 6.9 mph 94 % 0.00 in
13:15 49.5 °F 47.6 °F 30.19 in South 3.3 mph 8.1 mph 93 % 0.00 in
13:20 49.4 °F 47.5 °F 30.19 in South 4.6 mph 8.0 mph 93 % 0.00 in
13:25 49.4 °F 47.5 °F 30.19 in South 3.6 mph 6.9 mph 93 % 0.00 in
13:30 49.4 °F 47.5 °F 30.18 in SSE 4.0 mph 6.0 mph 93 % 0.00 in
13:35 49.3 °F 47.4 °F 30.17 in SSW 3.1 mph 4.6 mph 93 % 0.00 in
13:41 49.4 °F 47.5 °F 30.17 in South 3.1 mph 7.0 mph 93 % 0.00 in
13:46 49.4 °F 47.2 °F 30.17 in South 5.1 mph 8.1 mph 92 % 0.00 in
13:51 49.5 °F 47.3 °F 30.17 in South 5.1 mph 8.1 mph 92 % 0.00 in
13:56 49.5 °F 47.3 °F 30.17 in SSE 4.3 mph 7.0 mph 92 % 0.00 in
14:01 49.5 °F 47.3 °F 30.17 in South 3.1 mph 5.8 mph 92 % 0.00 in
14:06 49.5 °F 47.3 °F 30.17 in SW 5.8 mph 9.0 mph 92 % 0.00 in
14:11 49.5 °F 47.0 °F 30.17 in South 2.6 mph 4.6 mph 91 % 0.00 in
14:16 49.5 °F 47.3 °F 30.16 in SSW 3.2 mph 6.0 mph 92 % 0.00 in
14:21 49.6 °F 47.4 °F 30.16 in South 2.4 mph 5.8 mph 92 % 0.00 in
14:26 49.8 °F 47.3 °F 30.16 in SSE 2.1 mph 4.6 mph 91 % 0.00 in
14:31 50.0 °F 47.5 °F 30.15 in SW 3.3 mph 7.0 mph 91 % 0.00 in
14:36 50.2 °F 47.7 °F 30.15 in South 5.1 mph 6.9 mph 91 % 0.00 in
14:41 50.4 °F 47.6 °F 30.15 in SSW 3.7 mph 6.0 mph 90 % 0.00 in
14:47 50.5 °F 47.7 °F 30.15 in SSW 1.8 mph 9.2 mph 90 % 0.00 in
14:52 50.6 °F 47.5 °F 30.15 in South 4.2 mph 6.9 mph 89 % 0.00 in
14:57 50.8 °F 47.7 °F 30.15 in South 6.7 mph 8.1 mph 89 % 0.00 in
15:02 50.9 °F 47.8 °F 30.15 in SSW 4.1 mph 9.2 mph 89 % 0.00 in
15:07 51.0 °F 47.6 °F 30.15 in South 2.2 mph 3.5 mph 88 % 0.00 in
15:12 51.2 °F 47.8 °F 30.15 in South 3.6 mph 5.8 mph 88 % 0.00 in
15:17 51.3 °F 47.6 °F 30.15 in South 3.3 mph 5.0 mph 87 % 0.00 in
15:22 51.4 °F 47.7 °F 30.14 in SSE 2.1 mph 5.8 mph 87 % 0.00 in
15:27 51.5 °F 47.8 °F 30.15 in SSW 3.7 mph 6.9 mph 87 % 0.00 in
15:32 51.5 °F 47.5 °F 30.14 in South 0.3 mph 3.5 mph 86 % 0.00 in
15:37 51.4 °F 47.4 °F 30.14 in South 3.2 mph 5.8 mph 86 % 0.00 in
15:42 51.2 °F 47.2 °F 30.14 in SSW 2.3 mph 6.9 mph 86 % 0.00 in
15:47 51.1 °F 47.1 °F 30.14 in South 1.5 mph 3.5 mph 86 % 0.00 in
15:52 51.0 °F 47.0 °F 30.14 in SSW 0.3 mph 2.0 mph 86 % 0.00 in
15:58 50.9 °F 46.9 °F 30.14 in SSE 0.8 mph 2.3 mph 86 % 0.00 in
16:03 50.8 °F 46.8 °F 30.14 in SW 1.2 mph 3.5 mph 86 % 0.00 in
16:08 50.7 °F 46.7 °F 30.14 in Calm     86 % 0.00 in
16:13 50.6 °F 46.9 °F 30.14 in SW 0.7 mph 2.0 mph 87 % 0.00 in
16:18 50.6 °F 46.9 °F 30.14 in Calm   2.0 mph 87 % 0.00 in
16:23 50.4 °F 46.7 °F 30.14 in Calm   5.0 mph 87 % 0.00 in
16:28 50.2 °F 46.8 °F 30.14 in SSW 2.0 mph 5.0 mph 88 % 0.00 in
16:33 50.0 °F 46.6 °F 30.14 in SW 2.0 mph 4.0 mph 88 % 0.00 in
16:38 49.9 °F 46.5 °F 30.13 in SW 2.0 mph 6.0 mph 88 % 0.00 in
16:43 49.7 °F 46.6 °F 30.13 in Calm   5.0 mph 89 % 0.00 in
16:48 49.6 °F 46.5 °F 30.13 in SSW 1.0 mph 4.0 mph 89 % 0.00 in
16:53 49.4 °F 46.3 °F 30.12 in SSW 1.0 mph 5.0 mph 89 % 0.00 in
16:58 49.4 °F 46.3 °F 30.12 in South 0.6 mph 2.3 mph 89 % 0.00 in
17:03 49.3 °F 46.2 °F 30.12 in SSW 0.2 mph 1.2 mph 89 % 0.00 in
17:08 49.2 °F 46.1 °F 30.12 in SSW 2.7 mph 5.0 mph 89 % 0.00 in
17:13 49.2 °F 46.4 °F 30.12 in Calm     90 % 0.00 in
17:18 49.2 °F 46.4 °F 30.12 in SW 2.4 mph 3.5 mph 90 % 0.00 in
17:23 49.1 °F 46.3 °F 30.12 in SW 0.5 mph 2.0 mph 90 % 0.00 in
17:29 49.2 °F 46.4 °F 30.11 in SSW 1.7 mph 3.5 mph 90 % 0.00 in
17:34 49.2 °F 46.4 °F 30.11 in South 1.0 mph 3.5 mph 90 % 0.00 in
17:39 49.1 °F 46.3 °F 30.11 in SSW 2.7 mph 7.0 mph 90 % 0.00 in
17:44 49.2 °F 46.4 °F 30.11 in SSW 0.6 mph 8.1 mph 90 % 0.00 in
17:49 49.2 °F 46.4 °F 30.11 in SW 2.4 mph 4.6 mph 90 % 0.00 in
17:54 49.3 °F 46.5 °F 30.11 in SSW 1.2 mph 2.3 mph 90 % 0.00 in
17:59 49.4 °F 46.9 °F 30.11 in South 0.3 mph 1.2 mph 91 % 0.00 in
18:04 49.5 °F 47.0 °F 30.10 in SSW 0.9 mph 2.3 mph 91 % 0.00 in
18:09 49.5 °F 46.7 °F 30.10 in SSW 3.6 mph 6.9 mph 90 % 0.00 in
18:14 49.6 °F 47.1 °F 30.10 in SW 3.6 mph 4.6 mph 91 % 0.00 in
18:20 49.7 °F 46.9 °F 30.11 in SW 0.6 mph 2.3 mph 90 % 0.00 in
18:25 49.7 °F 46.9 °F 30.10 in SSW 2.3 mph 5.8 mph 90 % 0.00 in
18:30 49.7 °F 46.9 °F 30.10 in South 3.6 mph 6.9 mph 90 % 0.00 in
18:35 49.8 °F 47.0 °F 30.10 in South 4.1 mph 7.0 mph 90 % 0.00 in
18:40 49.8 °F 46.7 °F 30.10 in SSW 3.9 mph 6.0 mph 89 % 0.00 in
18:45 49.8 °F 46.7 °F 30.09 in South 3.4 mph 8.1 mph 89 % 0.00 in
18:50 49.8 °F 46.7 °F 30.09 in South 3.4 mph 5.8 mph 89 % 0.00 in
18:55 49.7 °F 46.6 °F 30.09 in South 5.3 mph 8.0 mph 89 % 0.00 in
19:00 49.7 °F 46.6 °F 30.09 in SSW 4.6 mph 6.9 mph 89 % 0.00 in
19:05 49.7 °F 46.6 °F 30.09 in South 7.5 mph 12.7 mph 89 % 0.00 in
19:10 49.7 °F 46.6 °F 30.08 in South 5.2 mph 8.1 mph 89 % 0.00 in
19:16 49.7 °F 46.6 °F 30.08 in SSW 6.1 mph 11.5 mph 89 % 0.00 in
19:21 49.8 °F 46.7 °F 30.08 in South 3.7 mph 7.0 mph 89 % 0.00 in
19:26 49.9 °F 46.8 °F 30.08 in SW 7.5 mph 11.5 mph 89 % 0.00 in
19:31 50.0 °F 46.9 °F 30.08 in SW 6.0 mph 8.1 mph 89 % 0.00 in
19:36 50.0 °F 46.9 °F 30.08 in SSW 4.2 mph 6.9 mph 89 % 0.00 in
19:41 50.1 °F 47.0 °F 30.08 in SSW 6.7 mph 8.1 mph 89 % 0.00 in
19:46 50.2 °F 47.1 °F 30.08 in SSW 6.3 mph 8.1 mph 89 % 0.00 in
19:51 50.3 °F 47.2 °F 30.08 in SSW 6.1 mph 10.4 mph 89 % 0.00 in
19:56 50.4 °F 47.3 °F 30.08 in SSW 6.6 mph 11.5 mph 89 % 0.00 in
20:01 50.6 °F 47.2 °F 30.08 in SSW 4.6 mph 9.2 mph 88 % 0.00 in
20:06 50.7 °F 47.3 °F 30.08 in SW 8.3 mph 11.5 mph 88 % 0.00 in
20:11 50.8 °F 47.4 °F 30.07 in South 6.7 mph 8.1 mph 88 % 0.00 in
20:16 51.0 °F 47.6 °F 30.07 in SSW 6.1 mph 12.7 mph 88 % 0.00 in
20:22 51.2 °F 47.5 °F 30.07 in South 5.6 mph 10.4 mph 87 % 0.00 in
20:27 51.3 °F 47.6 °F 30.06 in South 4.7 mph 6.9 mph 87 % 0.00 in
20:32 51.5 °F 47.8 °F 30.07 in South 3.3 mph 11.5 mph 87 % 0.00 in
20:37 51.6 °F 47.9 °F 30.06 in South 5.4 mph 11.5 mph 87 % 0.00 in
20:42 51.7 °F 47.6 °F 30.06 in SSE 7.6 mph 9.2 mph 86 % 0.00 in
20:47 51.8 °F 47.7 °F 30.06 in South 5.5 mph 9.0 mph 86 % 0.00 in
20:52 52.0 °F 47.9 °F 30.06 in South 4.5 mph 12.7 mph 86 % 0.00 in
20:57 52.1 °F 48.0 °F 30.06 in SSW 3.7 mph 8.1 mph 86 % 0.00 in
21:02 52.2 °F 47.8 °F 30.06 in South 6.5 mph 15.0 mph 85 % 0.00 in
21:07 52.3 °F 47.9 °F 30.05 in South 5.4 mph 10.4 mph 85 % 0.00 in
21:12 52.4 °F 48.0 °F 30.05 in South 4.8 mph 8.1 mph 85 % 0.00 in
21:18 52.4 °F 47.7 °F 30.05 in South 8.5 mph 10.4 mph 84 % 0.00 in
21:23 52.4 °F 47.7 °F 30.05 in South 5.4 mph 9.2 mph 84 % 0.00 in
21:28 52.4 °F 47.7 °F 30.05 in South 4.2 mph 12.7 mph 84 % 0.00 in
21:33 52.4 °F 47.7 °F 30.05 in SSW 5.5 mph 10.4 mph 84 % 0.00 in
21:38 52.4 °F 47.7 °F 30.05 in SSW 5.0 mph 12.0 mph 84 % 0.00 in
21:43 52.4 °F 47.7 °F 30.04 in South 5.0 mph 12.0 mph 84 % 0.00 in
21:48 52.4 °F 47.7 °F 30.04 in SSW 8.0 mph 14.0 mph 84 % 0.00 in
21:53 52.5 °F 47.8 °F 30.04 in SSW 7.0 mph 12.0 mph 84 % 0.00 in
21:58 52.6 °F 47.6 °F 30.03 in South 4.5 mph 11.5 mph 83 % 0.00 in
22:03 52.6 °F 47.6 °F 30.03 in South 6.0 mph 14.0 mph 83 % 0.00 in
22:08 52.6 °F 47.6 °F 30.03 in SSW 6.3 mph 10.4 mph 83 % 0.00 in
22:13 52.7 °F 47.7 °F 30.03 in South 6.0 mph 13.0 mph 83 % 0.00 in
22:18 52.7 °F 47.7 °F 30.03 in South 6.0 mph 13.0 mph 83 % 0.00 in
22:23 52.8 °F 47.8 °F 30.02 in South 6.0 mph 12.0 mph 83 % 0.00 in
22:28 52.8 °F 47.8 °F 30.02 in South 4.5 mph 9.2 mph 83 % 0.00 in
22:33 52.8 °F 47.8 °F 30.02 in South 6.0 mph 10.0 mph 83 % 0.00 in
22:38 52.8 °F 47.5 °F 30.01 in South 6.0 mph 12.0 mph 82 % 0.00 in
22:43 52.7 °F 47.4 °F 30.01 in SSW 2.0 mph 8.0 mph 82 % 0.00 in
22:48 52.6 °F 47.6 °F 30.01 in South 6.0 mph 13.0 mph 83 % 0.00 in
22:53 52.6 °F 47.3 °F 30.01 in SSW 6.0 mph 12.0 mph 82 % 0.00 in
22:58 52.5 °F 47.2 °F 30.00 in SSW 2.7 mph 6.0 mph 82 % 0.00 in
23:03 52.5 °F 47.5 °F 30.00 in SSW 4.5 mph 11.5 mph 83 % 0.00 in
23:08 52.4 °F 47.4 °F 30.00 in South 5.3 mph 11.0 mph 83 % 0.00 in
23:13 52.3 °F 47.3 °F 30.00 in South 3.4 mph 8.1 mph 83 % 0.00 in
23:18 52.2 °F 47.2 °F 30.00 in South 9.0 mph 10.4 mph 83 % 0.00 in
23:23 52.1 °F 47.1 °F 30.00 in South 3.6 mph 6.9 mph 83 % 0.00 in
23:28 52.1 °F 47.1 °F 30.00 in South 4.8 mph 9.2 mph 83 % 0.00 in
23:33 52.0 °F 47.0 °F 30.00 in SSW 4.4 mph 6.9 mph 83 % 0.00 in
23:39 52.0 °F 47.0 °F 30.00 in SSW 4.0 mph 8.1 mph 83 % 0.00 in
23:44 51.9 °F 46.9 °F 29.99 in South 4.2 mph 8.1 mph 83 % 0.00 in
23:49 51.9 °F 46.9 °F 29.99 in South 5.1 mph 8.0 mph 83 % 0.00 in
23:54 51.9 °F 47.2 °F 29.99 in South 6.9 mph 11.5 mph 84 % 0.00 in
23:59 51.9 °F 47.2 °F 29.98 in SW 4.4 mph 6.9 mph 84 % 0.00 in
Crab Meadow Weather
Compliments of Weather Underground - 3 mb

Script developed by  Jim McMurry - jmcmurry@mwt.net Adapted for the template by  Wim van der Kuil - Leuven-Template.eu

Recycling: The average household throws away 13,000 separate pieces of paper each year. Most is packaging and junk mail.